CAPE
0 0 0 0 0 0 0 0 0 0 0 0 0 0 0 0 0 0 0 0 0 0 0 0 0 0 0 0 0 0 0 0 0 0 0 0 0 0 0 0 0 0 0 0 0
0 0 0 0 0 0 0 0 0 0 0 0 0 0 0 0 0 0 0 0 0 0 0 0 0 0 0 0 0 0 0 0 0 0 0 0 0 0 0 0 0 0 0 0 0
0 0 0 0 0 0 0 0 0 0 0 0 0 0 0 0 0 0 0 0 0 0 0 0 0 0 0 0 0 0 0 0 0 0 0 0 0 0 0 0 0 0 0 0 0
0 0 0 0 0 0 0 0 0 0 0 0 0 0 0 0 0 0 0 0 0 0 0 0 0 0 0 0 0 0 0 0 0 0 0 0 0 0 0 0 0 0 0 0 0
0 0 0 0 0 0 0 0 0 0 0 0 0 0 0 0 0 0 0 0 0 0 0 0 0 0 0 0 0 0 0 0 0 0 0 0 0 0 0 0 0 0 0 0 0
0 0 0 0 0 0 0 0 0 0 0 0 0 0 0 0 0 0 0 0 0 0 0 0 0 0 0 0 0 0 0 0 0 0 0 0 0 0 0 0 0 0 0 0 0
0 0 0 0 0 0 0 0 0 0 0 0 0 0 0 0 0 0 0 0 0 0 0 0 0 0 0 0 0 0 0 0 0 0 0 0 0 0 0 0 0 0 0 0 0
0 0 0 0 0 0 0 0 0 0 0 0 0 0 0 0 0 0 0 0 0 0 0 0 0 0 0 0 0 0 0 0 0 0 0 0 0 0 0 0 0 0 0 0 0
0 0 0 0 0 0 0 0 0 0 0 0 0 0 0 0 0 0 0 0 0 0 0 0 0 0 0 0 0 0 0 0 0 0 0 0 0 0 0 0 0 0 0 0 0
0 0 0 0 0 0 0 0 0 0 0 0 0 0 0 0 0 0 0 0 0 0 0 0 0 0 0 0 0 0 0 0 0 0 0 0 0 0 0 0 0 0 0 0 0
0 0 0 0 0 0 0 0 0 0 0 0 0 0 0 0 0 0 0 0 0 0 0 0 0 0 0 0 0 0 0 0 0 0 0 0 0 0 0 0 0 0 0 0 0
0 0 0 0 0 0 0 0 0 0 0 0 0 0 0 0 0 0 0 0 0 0 0 0 0 0 0 0 0 0 0 0 0 0 0 0 0 0 0 0 0 0 0 0 0
0 0 0 0 0 0 0 0 0 0 0 0 0 0 0 0 0 0 0 0 0 0 0 0 0 0 0 0 0 0 0 0 0 0 0 0 0 0 0 0 0 0 0 0 0
0 0 0 0 0 0 0 0 0 0 0 0 0 0 0 0 0 0 0 0 0 0 0 0 0 0 0 0 0 0 0 0 0 0 0 0 0 0 0 0 0 0 0 0 0
0 0 0 0 0 0 0 0 0 0 0 0 0 0 0 0 0 0 0 0 0 0 0 0 0 0 0 0 0 0 0 0 0 0 0 0 0 0 0 0 0 0 0 0 0
0 0 0 0 0 0 0 0 0 0 0 0 0 0 0 0 0 0 0 0 0 0 0 0 0 0 0 0 0 0 0 0 0 0 0 0 0 0 0 0 0 0 0 0 0
0 0 0 0 0 0 0 0 0 0 0 0 0 0 0 0 0 0 0 0 0 0 0 0 0 0 0 0 0 0 0 0 0 0 0 0 0 0 0 0 0 0 0 0 0
0 0 0 0 0 0 0 0 0 0 0 0 0 0 0 0 0 0 0 0 0 0 0 0 0 0 0 0 0 0 0 0 0 0 0 0 0 0 0 0 0 0 0 0 0
0 0 0 0 0 0 0 0 0 0 0 0 0 0 0 0 0 0 0 0 0 0 0 0 0 0 0 0 0 0 0 0 0 0 0 0 0 0 0 0 0 0 0 0 0
0 0 0 0 0 0 0 0 0 0 0 0 0 0 0 0 0 0 0 0 0 0 0 0 0 0 0 0 0 0 0 0 0 0 0 0 0 0 0 0 0 0 0 0 0
0 0 0 0 0 0 0 0 0 0 0 0 0 0 0 0 0 0 0 0 0 0 0 0 0 0 0 0 0 0 0 0 0 0 0 0 0 0 0 0 0 0 0 0 0
0 0 0 0 0 0 0 0 0 0 0 0 0 0 0 0 0 0 0 0 0 0 0 0 0 0 0 0 0 0 0 0 0 0 0 0 0 0 0 0 0 0 0 0 0
0 0 0 0 0 0 0 0 0 0 0 0 0 0 0 0 0 0 0 0 0 0 0 0 0 0 0 0 0 0 0 0 0 0 0 0 0 0 0 0 0 0 0 0 0
0 0 0 0 0 0 0 0 0 0 0 0 0 0 0 0 0 0 0 0 0 0 0 0 0 0 0 0 0 0 0 0 0 0 0 0 0 0 0 0 0 0 0 0 0
0 0 0 0 0 0 0 0 0 0 0 0 0 0 0 0 0 0 0 0 0 0 0 0 0 0 0 0 0 0 0 0 0 0 0 0 0 0 0 0 0 0 0 0 0
0 0 0 0 0 0 0 0 0 0 0 0 0 0 0 0 0 0 0 0 0 0 0 0 0 0 0 0 0 0 0 0 0 0 0 0 0 0 0 0 0 0 0 0 0
0 0 0 0 0 0 0 0 0 0 0 0 0 0 0 0 0 0 0 0 0 0 0 0 0 0 0 0 0 0 0 0 0 0 0 0 0 0 0 0 0 0 0 0 0
CIN
0 0 0 0 0 0 0 0 0 0 0 0 0 0 0 0 0 0 0 0 0 0 0 0 0 0 0 0 0 0 0 0 0 0 0 0 0 0 0 0 0 0 0 0 0
0 0 0 0 0 0 0 0 0 0 0 0 0 0 0 0 0 0 0 0 0 0 0 0 0 0 0 0 0 0 0 0 0 0 0 0 0 0 0 0 0 0 0 0 0
0 0 0 0 0 0 0 0 0 0 0 0 0 0 0 0 0 0 0 0 0 0 0 0 0 0 0 0 0 0 0 0 0 0 0 0 0 0 0 0 0 0 0 0 0
0 0 0 0 0 0 0 0 0 0 0 0 0 0 0 0 0 0 0 0 0 0 0 0 0 0 0 0 0 0 0 0 0 0 0 0 0 0 0 0 0 0 0 0 0
0 0 0 0 0 0 0 0 0 0 0 0 0 0 0 0 0 0 0 0 0 0 0 0 0 0 0 0 0 0 0 0 0 0 0 0 0 0 0 0 0 0 0 0 0
0 0 0 0 0 0 0 0 0 0 0 0 0 0 0 0 0 0 0 0 0 0 0 0 0 0 0 0 0 0 0 0 0 0 0 0 0 0 0 0 0 0 0 0 0
0 0 0 0 0 0 0 0 0 0 0 0 0 0 0 0 0 0 0 0 0 0 0 0 0 0 0 0 0 0 0 0 0 0 0 0 0 0 0 0 0 0 0 0 0
0 0 0 0 0 0 0 0 0 0 0 0 0 0 0 0 0 0 0 0 0 0 0 0 0 0 0 0 0 0 0 0 0 0 0 0 0 0 0 0 0 0 0 0 0
0 0 0 0 0 0 0 0 0 0 0 0 0 0 0 0 0 0 0 0 0 0 0 0 0 0 0 0 0 0 0 0 0 0 0 0 0 0 0 0 0 0 0 0 0
0 0 0 0 0 0 0 0 0 0 0 0 0 0 0 0 0 0 0 0 0 0 0 0 0 0 0 0 0 0 0 0 0 0 0 0 0 0 0 0 0 0 0 0 0
0 0 0 0 0 0 0 0 0 0 0 0 0 0 0 0 0 0 0 0 0 0 0 0 0 0 0 0 0 0 0 0 0 0 0 0 0 0 0 0 0 0 0 0 0
0 0 0 0 0 0 0 0 0 0 0 0 0 0 0 0 0 0 0 0 0 0 0 0 0 0 0 0 0 0 0 0 0 0 0 0 0 0 0 0 0 0 0 0 0
0 0 0 0 0 0 0 0 0 0 0 0 0 0 0 0 0 0 0 0 0 0 0 0 0 0 0 0 0 0 0 0 0 0 0 0 0 0 0 0 0 0 0 0 0
0 0 0 0 0 0 0 0 0 0 0 0 0 0 0 0 0 0 0 0 0 0 0 0 0 0 0 0 0 0 0 0 0 0 0 0 0 0 0 0 0 0 0 0 0
0 0 0 0 0 0 0 0 0 0 0 0 0 0 0 0 0 0 0 0 0 0 0 0 0 0 0 0 0 0 0 0 0 0 0 0 0 0 0 0 0 0 0 0 0
0 0 0 0 0 0 0 0 0 0 0 0 0 0 0 0 0 0 0 0 0 0 0 0 0 0 0 0 0 0 0 0 0 0 0 0 0 0 0 0 0 0 0 0 0
0 0 0 0 0 0 0 0 0 0 0 0 0 0 0 0 0 0 0 0 0 0 0 0 0 0 0 0 0 0 0 0 0 0 0 0 0 0 0 0 0 0 0 0 0
0 0 0 0 0 0 0 0 0 0 0 0 0 0 0 0 0 0 0 0 0 0 0 0 0 0 0 0 0 0 0 0 0 0 0 0 0 0 0 0 0 0 0 0 0
0 0 0 0 0 0 0 0 0 0 0 0 0 0 0 0 0 0 0 0 0 0 0 0 0 0 0 0 0 0 0 0 0 0 0 0 0 0 0 0 0 0 0 0 0
0 0 0 0 0 0 0 0 0 0 0 0 0 0 0 0 0 0 0 0 0 0 0 0 0 0 0 0 0 0 0 0 0 0 0 0 0 0 0 0 0 0 0 0 0
0 0 0 0 0 0 0 0 0 0 0 0 0 0 0 0 0 0 0 0 0 0 0 0 0 0 0 0 0 0 0 0 0 0 0 0 0 0 0 0 0 0 0 0 0
0 0 0 0 0 0 0 0 0 0 0 0 0 0 0 0 0 0 0 0 0 0 0 0 0 0 0 0 0 0 0 0 0 0 0 0 0 0 0 0 0 0 0 0 0
0 0 0 0 0 0 0 0 0 0 0 0 0 0 0 0 0 0 0 0 0 0 0 0 0 0 0 0 0 0 0 0 0 0 0 0 0 0 0 0 0 0 0 0 0
0 0 0 0 0 0 0 0 0 0 0 0 0 0 0 0 0 0 0 0 0 0 0 0 0 0 0 0 0 0 0 0 0 0 0 0 0 0 0 0 0 0 0 0 0
0 0 0 0 0 0 0 0 0 0 0 0 0 0 0 0 0 0 0 0 0 0 0 0 0 0 0 0 0 0 0 0 0 0 0 0 0 0 0 0 0 0 0 0 0
0 0 0 0 0 0 0 0 0 0 0 0 0 0 0 0 0 0 0 0 0 0 0 0 0 0 0 0 0 0 0 0 0 0 0 0 0 0 0 0 0 0 0 0 0
0 0 0 0 0 0 0 0 0 0 0 0 0 0 0 0 0 0 0 0 0 0 0 0 0 0 0 0 0 0 0 0 0 0 0 0 0 0 0 0 0 0 0 0 0
Wind_Speed
6 6 5 4 4 6 6 8 10 10 9 9 9 9 7 9 21 28 26 9 8 10 7 25 23 24 25 24 24 22 20 20 18 21 15 20 19 21 21 20 21 20 20 22 24
5 4 4 3 4 4 5 7 9 10 10 12 13 12 14 9 19 29 14 17 15 10 22 25 25 27 26 26 26 22 22 23 21 18 18 21 22 21 22 23 23 23 24 24 26
5 5 5 4 4 4 5 7 10 13 12 12 12 9 15 14 18 11 17 17 17 4 26 25 25 27 28 29 26 26 25 24 24 22 21 23 26 23 25 28 26 26 26 27 28
7 8 7 6 5 4 6 9 12 13 12 10 5 9 12 9 1 2 15 16 13 1 25 24 25 24 26 27 26 29 26 24 22 23 24 26 24 28 25 23 23 24 25 27 29
6 6 6 6 5 6 7 8 8 8 7 8 5 5 3 22 8 3 8 22 11 20 25 24 26 26 27 30 32 30 27 27 26 27 27 26 28 26 26 23 24 24 26 28 29
5 5 6 6 6 6 6 5 4 2 1 3 11 4 5 20 6 3 7 28 26 29 27 27 27 29 27 23 25 26 28 26 24 24 23 25 23 24 22 22 24 26 27 28 29
6 7 7 6 6 6 6 5 4 3 6 4 3 8 27 20 17 1 21 32 34 31 29 27 21 23 30 33 32 29 28 27 23 20 20 23 26 23 18 19 23 25 26 28 29
7 6 5 5 5 5 5 5 6 2 6 8 3 17 10 14 13 4 4 11 27 31 32 30 31 31 25 27 22 20 21 21 21 22 20 19 22 18 17 18 21 21 24 26 29
7 6 6 5 5 6 6 5 8 6 3 10 3 12 16 9 3 6 3 19 16 20 27 33 30 30 23 24 23 23 21 21 19 22 20 21 21 17 16 16 17 16 19 24 26
7 7 7 6 6 7 10 12 1 6 9 10 2 13 7 9 11 11 14 7 24 24 30 28 28 31 32 24 23 23 23 19 20 20 22 22 21 17 16 15 15 14 15 19 23
8 8 8 7 7 8 14 12 10 4 5 4 14 18 15 13 12 3 13 8 28 34 32 35 34 34 32 30 27 25 24 23 20 19 20 20 20 16 14 14 14 13 13 14 17
9 10 10 9 6 5 8 11 14 19 11 7 7 8 12 12 9 6 8 23 27 31 28 30 38 28 25 26 28 27 23 23 18 19 21 21 18 15 13 12 12 13 13 12 14
11 12 13 12 12 7 2 9 11 16 15 10 8 9 12 11 14 5 19 24 33 35 36 35 26 26 26 27 25 27 27 20 19 20 22 22 20 15 14 11 11 11 12 12 11
13 14 15 16 14 15 13 11 11 15 12 7 8 7 8 17 18 15 17 20 23 26 26 29 24 26 27 28 23 26 23 20 19 22 26 23 27 21 18 15 13 12 11 11 11
13 13 13 15 14 15 16 14 13 14 17 12 10 11 8 20 16 4 20 28 28 27 22 24 24 24 28 26 24 23 23 21 22 23 23 23 25 21 21 21 17 14 12 11 11
13 13 15 15 15 16 16 15 14 14 16 14 12 10 9 8 20 16 24 25 21 24 28 23 21 22 23 22 25 22 25 22 24 24 28 24 26 24 23 23 23 20 15 12 12
13 11 13 15 15 17 16 14 15 15 15 15 13 12 18 19 20 21 22 28 24 21 23 20 20 20 21 24 22 28 30 29 29 30 29 22 24 19 19 18 20 21 18 15 13
14 13 12 13 16 16 14 15 16 17 17 14 14 16 18 21 20 21 20 22 25 24 21 23 23 21 20 24 25 29 31 32 31 30 27 21 26 24 20 20 20 20 18 18 16
13 13 13 15 16 14 13 13 17 14 15 13 15 17 18 18 19 20 22 20 21 23 23 21 19 18 19 21 23 25 31 24 26 24 28 25 22 19 21 22 22 21 20 19 19
12 12 13 17 15 13 13 12 13 14 14 14 15 16 18 18 19 20 19 18 19 20 20 19 20 18 18 19 23 23 23 28 29 31 32 27 27 26 25 26 24 23 22 22 22
12 12 15 17 14 13 14 15 15 14 13 14 15 16 18 18 19 20 18 18 17 19 20 20 19 20 19 18 20 22 24 25 25 25 29 31 28 20 22 25 25 23 22 23 23
13 13 15 15 12 14 13 13 14 14 15 15 16 16 16 17 19 19 18 18 16 18 21 19 19 21 19 18 16 17 20 21 26 26 22 24 24 19 20 23 22 21 20 22 20
13 13 14 13 13 14 15 14 14 14 14 15 15 16 16 17 19 17 17 17 16 18 19 18 21 24 23 21 18 17 17 18 19 21 21 26 25 20 21 23 22 19 19 20 20
12 12 14 13 14 13 13 15 15 15 15 14 15 15 16 16 17 17 17 16 15 17 17 18 19 19 20 19 19 16 15 14 14 19 21 16 20 20 21 22 21 20 18 19 20
14 13 12 13 12 13 14 14 14 15 15 13 17 14 15 17 17 17 16 16 16 14 17 18 19 19 14 11 11 9 9 11 10 10 15 18 19 20 19 19 20 20 19 20 20
13 12 14 14 14 9 14 15 14 15 13 15 14 14 12 15 14 18 15 15 16 14 16 17 20 23 23 21 21 12 7 8 6 9 8 10 15 14 18 18 18 18 18 19 19
14 15 14 15 14 12 15 14 13 12 15 15 14 14 13 12 14 16 13 16 14 14 13 17 19 25 22 24 18 15 13 14 14 13 13 15 14 19 18 17 16 16 17 18 17
Wind_Direction
204 206 223 265 281 316 311 324 329 327 311 294 272 239 229 317 354 12 4 309 286 278 202 44 33 27 25 29 22 29 9 2 358 345 357 350 350 354 351 352 347 336 335 330 329
219 236 260 279 296 285 312 333 338 330 323 320 305 234 165 281 355 14 337 330 316 290 22 37 36 30 27 20 25 30 24 11 10 18 20 3 354 344 337 337 333 332 335 337 338
211 209 205 225 228 263 313 333 342 343 335 335 326 274 171 163 359 345 333 331 327 200 75 73 58 35 30 24 27 31 41 44 29 34 27 14 358 341 332 328 328 324 324 328 335
185 185 193 213 233 275 314 331 341 344 341 330 309 15 6 208 250 268 333 338 337 227 68 33 36 45 42 40 39 43 42 45 44 32 23 9 16 1 354 339 339 334 331 329 329
199 206 211 230 252 288 310 317 322 330 335 337 319 212 343 31 130 166 341 351 347 2 31 53 36 46 56 56 44 52 55 50 52 43 36 31 17 15 0 356 346 338 333 328 326
256 250 248 269 281 290 289 295 293 269 187 49 12 219 164 34 159 357 346 1 2 17 31 43 60 64 57 71 58 78 66 61 51 41 36 28 22 15 15 5 354 343 334 329 326
271 275 278 275 280 279 264 275 239 194 176 184 238 3 35 123 124 186 354 14 21 21 41 56 77 63 71 60 74 73 57 52 44 46 39 31 21 24 30 20 5 354 341 334 329
280 280 266 275 262 252 253 239 207 260 178 181 201 23 48 142 126 320 127 8 12 25 46 62 62 62 71 81 76 67 55 45 42 39 37 34 22 34 38 31 20 12 356 344 337
294 262 264 250 248 243 210 210 196 203 196 168 248 81 126 162 142 108 79 99 101 15 20 60 74 69 80 77 66 57 51 47 46 40 36 32 29 38 45 40 31 27 13 356 349
270 249 243 242 242 228 190 166 138 215 189 164 246 121 152 133 133 136 105 89 75 70 24 21 68 60 51 61 59 55 50 51 43 39 34 35 34 43 45 39 33 30 23 9 357
264 242 237 235 247 234 196 194 185 167 47 114 133 130 137 133 120 122 122 358 71 50 55 37 56 53 57 58 61 58 51 47 45 41 40 34 35 40 42 36 29 25 20 15 6
265 242 230 225 230 237 217 186 165 149 142 147 155 146 136 131 127 351 104 90 74 68 69 64 46 64 66 60 51 47 45 42 46 43 40 36 30 35 35 30 27 20 15 12 13
265 246 231 223 214 228 271 191 191 161 158 165 166 149 150 124 109 110 97 87 56 51 50 55 68 64 60 52 48 44 39 40 41 43 42 35 31 30 29 24 22 14 11 10 7
268 251 236 222 224 217 213 223 213 183 184 207 191 178 159 125 104 100 99 88 78 67 67 61 69 60 58 50 50 41 37 41 44 37 31 38 25 32 29 17 11 0 1 1 5
273 255 249 237 234 229 222 237 227 220 158 210 199 177 165 99 115 308 82 54 62 62 72 67 65 61 53 51 51 43 40 45 44 39 33 35 30 30 30 21 10 3 358 0 6
279 262 240 242 250 240 243 246 244 210 175 200 219 221 212 286 87 93 62 61 74 64 57 69 70 63 56 55 49 43 40 49 44 39 35 40 35 28 30 26 23 17 15 15 10
278 287 261 246 248 249 255 264 225 200 220 210 233 270 350 2 66 60 59 43 57 59 56 63 63 61 57 48 51 42 40 40 38 36 32 43 32 25 23 22 17 14 18 14 11
286 281 283 266 260 260 269 267 232 219 216 299 316 358 354 22 42 44 52 52 50 53 57 50 49 55 54 48 43 43 43 42 33 31 26 37 33 31 31 24 18 18 18 15 16
305 288 280 275 272 271 281 295 263 276 284 332 343 354 12 26 37 37 36 46 48 48 49 47 48 57 53 51 47 42 38 46 39 41 33 35 30 23 34 26 23 19 18 16 17
343 312 291 274 277 285 289 309 310 307 320 328 340 356 6 15 21 21 29 42 43 45 48 48 42 50 49 51 46 44 50 36 37 32 29 30 27 26 24 21 20 20 21 22 22
338 326 292 279 286 294 291 298 304 313 327 333 340 345 353 3 9 11 22 31 38 38 40 39 42 38 43 44 40 41 39 40 40 42 32 27 25 33 23 20 18 20 25 23 23
338 331 298 296 299 295 297 306 311 313 319 328 340 342 353 3 1 6 11 20 37 36 28 36 36 27 33 42 45 44 39 40 35 33 36 32 24 33 24 18 18 19 23 24 27
347 338 316 314 305 296 299 304 309 316 319 327 333 339 351 355 355 8 14 23 34 28 27 33 26 19 25 35 38 35 38 38 40 38 31 31 21 27 19 16 17 20 23 26 29
350 353 328 323 315 314 304 301 305 311 316 325 333 343 347 350 355 359 7 19 27 27 31 30 23 21 16 17 22 20 28 36 41 33 30 20 3 359 6 11 18 25 28 32 32
332 343 343 337 323 310 309 309 303 305 313 324 325 332 341 342 349 352 2 8 13 26 23 22 14 15 10 360 8 5 13 30 30 29 24 16 9 352 360 13 27 32 35 34 35
338 344 337 331 331 335 310 307 304 305 313 315 319 333 340 339 347 346 359 2 3 14 14 13 8 7 9 19 22 19 13 22 20 21 357 339 344 1 23 34 29 31 34 34 37
330 327 333 328 329 327 317 313 314 310 311 315 324 329 334 336 342 347 356 356 359 3 8 6 6 3 10 10 13 31 41 44 42 41 32 22 9 25 23 24 27 33 37 37 41